#timestamp,LO_Frequency,Hit,StdDev 
1589187615.1,286046999.2,N
1589187616.0,286046999.2,N
1589187635.8,286046999.6,N
1589187655.7,286046997.5,N
1589187675.5,286046995.2,Y
1589187695.3,286046997.6,P
1589187715.2,286046995.0,P
1589187735.0,286046996.1,N
1589187735.9,286046996.1,N
1589187755.8,286046995.0,Y
1589187775.6,286047002.3,P
1589187795.4,286047000.9,N
1589187815.3,286047000.1,N
1589187835.1,286046998.4,N
1589187855.9,286046998.1,N
1589187875.7,286046998.2,N
1589187895.5,286046998.6,N
1589187915.4,286046997.3,N
1589187935.2,286046997.2,N
1589187955.0,286046998.0,N
1589187956.0,286046998.0,N
1589187975.8,286046996.6,N
1589187995.6,286046998.4,N
1589188015.5,286046996.6,N
1589188035.3,286046998.9,N
1589188055.1,286046997.3,N
1589188075.9,286046997.1,N
1589188095.7,286046997.9,N
1589188115.6,286046999.6,N
1589188135.4,286046999.5,N
1589188155.2,286046997.6,N
1589188175.1,286046997.4,N
1589188176.0,286046997.4,N
1589188195.8,286046997.1,N
1589188215.6,286046995.0,Y
1589188235.5,286046999.4,P
1589188255.3,286046996.7,P
1589188275.2,286046995.0,P
1589188295.9,286046997.8,N
1589188315.7,286046994.9,Y
1589188335.6,286046996.7,P
1589188355.4,286046996.7,P
1589188375.3,286046998.9,P
1589188395.1,286046999.3,N
1589188396.0,286046999.3,N
1589188415.8,286046998.3,N
1589188435.7,286047001.1,N
1589188455.5,286046999.2,N
1589188475.3,286046999.4,N
1589188495.2,286046998.3,N
1589188515.0,286046998.1,N
1589188515.9,286046998.1,N
1589188535.8,286047000.1,N
1589188555.6,286047001.1,N
1589188575.4,286047000.2,N
1589188595.3,286046999.8,N
1589188615.1,286047000.3,N
1589188635.8,286047002.3,N
1589188655.7,286046999.7,N
1589188675.5,286047002.1,N
1589188695.4,286047000.4,N
1589188715.2,286047000.5,N
1589188735.0,286046998.5,N
1589188735.9,286046998.5,N
1589188755.8,286046996.5,N
1589188775.6,286046996.7,N
1589188795.5,286046999.5,N
1589188815.3,286046997.8,N
1589188835.1,286046994.9,Y
1589188855.9,286046998.1,P
1589188875.7,286046998.1,P
1589188895.5,286046999.5,N
1589188915.4,286046996.6,Y
1589188935.2,286047000.7,P
1589188955.1,286046998.4,N
1589188956.0,286046998.4,N
1589188975.8,286046999.3,N
1589188995.6,286046998.4,N
1589189015.5,286046999.3,N
1589189035.3,286046996.6,Y
1589189055.2,286046999.6,P
1589189075.9,286046998.8,P
1589189095.7,286046999.4,N
1589189115.6,286046998.9,Y
1589189135.4,286047000.7,P
1589189155.3,286047000.6,N
1589189175.1,286047000.3,N
1589189176.0,286047000.3,N
1589189195.8,286047000.1,N
1589189215.7,286047002.6,Y
1589189235.5,286046999.7,P
1589189255.3,286047000.4,N
1589189275.2,286047002.4,P
1589189295.0,286046999.7,N
1589189295.9,286046999.7,N
1589189315.8,286047000.2,N
1589189335.6,286047002.8,Y
1589189355.4,286046999.8,P
1589189375.3,286047002.3,P
1589189395.1,286047003.8,P
1589189415.9,286047005.9,Y
1589189435.7,286047001.3,P
1589189455.5,286047001.8,P
1589189475.4,286047001.3,P
1589189495.2,286047002.6,Y
1589189515.0,286046999.7,P
1589189516.0,286046999.7,N
1589189535.8,286046999.7,N
1589189555.6,286046999.7,N
1589189575.5,286046999.8,N
1589189595.3,286047001.0,N
1589189615.1,286046998.1,N
1589189635.9,286046999.0,N
1589189655.7,286046999.5,N
1589189675.6,286046996.5,Y
1589189695.4,286046997.0,P
1589189715.2,286046996.7,N
1589189735.1,286046999.5,N
1589189736.0,286046999.5,N
1589189755.8,286046999.0,N
1589189775.6,286046996.6,N
1589189795.5,286046996.6,N
1589189815.3,286046997.8,N
1589189835.2,286046997.9,N
1589189855.9,286046995.1,Y
1589189875.7,286046999.6,P
1589189895.6,286046999.2,N
1589189915.4,286046998.3,N
1589189935.3,286047000.9,N
1589189955.1,286047000.4,N
1589189956.0,286047000.4,N
1589189975.8,286047000.0,N
1589189995.7,286047000.3,N
1589190015.5,286046999.7,N
1589190035.3,286047001.7,N
1589190055.2,286047002.0,N
1589190075.0,286047002.0,N
1589190075.9,286047002.0,N
1589190095.8,286047000.4,N
1589190115.6,286047000.8,N
1589190135.4,286046998.9,N
1589190155.3,286046998.6,N
1589190175.1,286046998.2,N
1589190195.9,286046998.3,N
1589190215.7,286046998.4,N
1589190235.5,286046999.3,N
1589190255.4,286046996.7,N
1589190275.2,286046996.6,N
1589190295.0,286046995.0,Y
1589190296.0,286046995.0,P
1589190315.8,286046996.8,N
1589190335.6,286046997.4,N
1589190355.5,286046997.7,N
1589190375.3,286046998.0,N
1589190395.1,286046997.6,N
1589190415.9,286046997.4,N
1589190435.7,286046997.2,N
1589190455.6,286046997.3,N
1589190475.4,286046999.4,N
1589190495.2,286046996.5,Y
1589190515.1,286047002.8,P
1589190516.0,286047002.8,N
1589190535.8,286047002.3,N
1589190555.7,286047002.8,N
1589190575.5,286047000.5,N
1589190595.3,286047000.8,N
1589190615.2,286046999.9,N
1589190635.0,286047002.5,N
1589190635.9,286047002.5,N
1589190655.7,286047002.2,N
1589190675.6,286047002.3,N
1589190695.4,286047002.3,N
1589190715.3,286047002.7,N
1589190735.1,286047002.3,N
1589190736.0,286047002.3,N
1589190755.8,286047002.1,N
1589190775.7,286047002.6,N
1589190795.5,286047003.8,N
1589190815.3,286047003.8,N
1589190835.2,286047003.4,N
1589190855.0,286047001.4,N
1589190855.9,286047001.4,N
1589190875.8,286047004.4,Y
1589190895.6,286046999.9,P
1589190915.4,286047000.8,N
1589190935.3,286046998.6,N
1589190955.1,286047001.0,N
1589190975.9,286047000.2,N
1589190995.7,286047002.1,N
1589191015.5,286047001.7,N
1589191035.4,286047002.4,N
1589191055.2,286046999.8,N
1589191075.0,286047000.9,N
1589191075.9,286047000.9,N
1589191095.8,286047000.7,N
1589191115.6,286046998.4,N
1589191135.5,286046998.2,N
1589191155.3,286047001.0,N
1589191175.1,286046998.3,N
1589191195.9,286046998.7,N
